TimeCST,TemperatureF,Dew PointF,Humidity,Sea Level PressureIn,VisibilityMPH,Wind Direction,Wind SpeedMPH,Gust SpeedMPH,PrecipitationIn,Events,Conditions,WindDirDegrees,DateUTC
12:53 AM,27.0,19.0,72,30.04,8.0,South,5.8,-,N/A,,Clear,190,2013-11-30 06:53:00
1:53 AM,25.0,19.0,78,30.04,8.0,SSW,3.5,-,N/A,,Clear,210,2013-11-30 07:53:00
2:53 AM,21.9,17.1,82,30.06,7.0,WNW,4.6,-,N/A,,Clear,300,2013-11-30 08:53:00
3:53 AM,21.0,16.0,81,30.06,6.0,NW,3.5,-,N/A,,Haze,320,2013-11-30 09:53:00
4:53 AM,24.1,19.0,81,30.07,6.0,NNW,3.5,-,N/A,,Haze,330,2013-11-30 10:53:00
5:53 AM,23.0,19.0,85,30.08,6.0,NNW,4.6,-,N/A,,Partly Cloudy,330,2013-11-30 11:53:00
6:53 AM,23.0,18.0,81,30.11,6.0,NNW,6.9,-,N/A,,Haze,340,2013-11-30 12:53:00
7:53 AM,19.9,16.0,85,30.13,5.0,NNW,5.8,-,N/A,,Clear,340,2013-11-30 13:53:00
8:53 AM,21.9,18.0,85,30.15,4.0,North,6.9,-,N/A,,Mostly Cloudy,350,2013-11-30 14:53:00
9:53 AM,25.0,19.0,78,30.17,4.0,NNW,9.2,-,N/A,,Haze,340,2013-11-30 15:53:00
10:53 AM,26.1,19.9,78,30.18,4.0,NNW,9.2,-,N/A,,Haze,340,2013-11-30 16:53:00
11:53 AM,26.1,19.9,78,30.18,4.0,North,8.1,-,N/A,,Haze,350,2013-11-30 17:53:00
12:53 PM,27.0,19.9,75,30.18,4.0,NNW,6.9,-,N/A,,Haze,330,2013-11-30 18:53:00
1:53 PM,27.0,21.0,78,30.18,4.0,NNW,6.9,-,N/A,,Haze,340,2013-11-30 19:53:00
2:53 PM,27.0,21.0,78,30.19,4.0,NNW,8.1,-,N/A,,Haze,340,2013-11-30 20:53:00
3:53 PM,26.1,21.0,81,30.20,3.0,North,9.2,-,N/A,,Haze,10,2013-11-30 21:53:00
4:53 PM,25.0,19.9,81,30.22,5.0,North,8.1,-,N/A,,Haze,10,2013-11-30 22:53:00
5:11 PM,24.8,19.4,80,30.17,5.0,NNE,6.9,-,N/A,,Haze,20,2013-11-30 23:11:00
5:53 PM,25.0,19.9,81,30.23,5.0,NNE,9.2,-,N/A,,Haze,30,2013-11-30 23:53:00
6:53 PM,24.1,19.9,84,30.24,5.0,NNE,10.4,-,N/A,,Overcast,20,2013-12-01 00:53:00
7:53 PM,23.0,19.0,85,30.25,5.0,North,6.9,-,N/A,,Overcast,10,2013-12-01 01:53:00
8:53 PM,23.0,19.0,85,30.26,4.0,NNE,5.8,-,N/A,,Overcast,30,2013-12-01 02:53:00
9:53 PM,23.0,19.0,85,30.26,4.0,NE,5.8,-,N/A,,Overcast,40,2013-12-01 03:53:00
10:53 PM,21.9,19.0,89,30.27,4.0,NE,8.1,-,N/A,,Overcast,40,2013-12-01 04:53:00
11:53 PM,21.9,19.0,89,30.27,4.0,North,8.1,-,N/A,,Overcast,10,2013-12-01 05:53:00